{"data":{"norad_id":69423,"intl_designator":"2026-126D","name":"STARLINK-37820","alt_names":[],"object_type":"PAYLOAD","status":"ACTIVE","operator":null,"country":"US","launch_date":"2026-06-07","launch_site_code":"AFWTR","launch_vehicle":null,"mission":null,"orbit_class":"UNKNOWN","rcs_meters":null,"size_class":null,"mass_kg":null,"dimensions":null,"purposes":["comms"],"wikipedia_slug":null,"has_3d_model":false,"image_url":null,"decayed_at":null,"tle_current":{"epoch":"2026-09-19T09:59:29.475168Z","epoch_age_seconds":122656,"freshness":"FRESH","line1":"1 69423U 26126D   26262.41631337  .00009357  00000+0  29182-3 0  9995","line2":"2 69423  97.2847 123.5976 0001955  87.8942 272.2525 15.33440833 17359","mean_motion":15.33440833,"eccentricity":0.0001955,"inclination_deg":97.2847,"raan_deg":123.5976,"arg_perigee_deg":87.8942,"mean_anomaly_deg":272.2525,"bstar":0.00029182,"rev_number":1735,"period_min":93.906459839263,"perigee_km":464.21763066854,"apogee_km":466.89351446441,"semimajor_km":6843.6925725665,"source":"CELESTRAK","updated_at":"2026-09-20T09:00:44.194622Z"}}}